This is the latest recevied weather packets stored in our database for station/object 4S6DRJ-13. If no packets are shown the sender has not sent any weather packets the latest 10 day(s).
| Time | Temp. | Humidity | Pressure | Rain* | Wind** | Luminosity | Snow |
|---|---|---|---|---|---|---|---|
| 1788340738 | 30.56° C | 69% | 1008 hPa | 0 mm | 1.34 m/s, 112° | 235 W/m² | - |
| 1788340677 | 30.56° C | 68% | 1008 hPa | 0 mm | 1.79 m/s, 307° | 281 W/m² | - |
| 1788340616 | 30.56° C | 69% | 1008 hPa | 0 mm | 3.13 m/s, 222° | 459 W/m² | - |
| 1788340556 | 31.11° C | 69% | 1007.9 hPa | 0 mm | 2.24 m/s, 178° | 272 W/m² | - |
| 1788340494 | 31.11° C | 69% | 1007.9 hPa | 0 mm | 2.24 m/s, 274° | 257 W/m² | - |
| 1788340433 | 31.11° C | 69% | 1007.9 hPa | 0 mm | 2.68 m/s, 251° | 240 W/m² | - |
| 1788340372 | 31.11° C | 68% | 1007.9 hPa | 0 mm | 2.24 m/s, 219° | 223 W/m² | - |
| 1788340311 | 31.67° C | 69% | 1008 hPa | 0 mm | 1.34 m/s, 204° | 210 W/m² | - |
| 1788340250 | 31.67° C | 68% | 1008 hPa | 0 mm | 2.24 m/s, 250° | 231 W/m² | - |
| 1788340189 | 32.22° C | 69% | 1008.1 hPa | 0 mm | 1.79 m/s, 264° | 321 W/m² | - |
| 1788340128 | 32.22° C | 68% | 1008.1 hPa | 0 mm | 2.68 m/s, 230° | 301 W/m² | - |
| 1788340067 | 32.22° C | 67% | 1008.1 hPa | 0 mm | 2.24 m/s, 189° | 608 W/m² | - |
| 1788340006 | 32.22° C | 65% | 1007.9 hPa | 0 mm | 2.24 m/s, 233° | 996 W/m² | - |
| 1788339945 | 32.22° C | 65% | 1007.9 hPa | 0 mm | 1.79 m/s, 243° | 869 W/m² | - |
| 1788339884 | 32.22° C | 65% | 1007.9 hPa | 0 mm | 0.89 m/s, 177° | 1101 W/m² | - |
| 1788339823 | 32.22° C | 66% | 1008 hPa | 0 mm | 0.45 m/s, 17° | 1100 W/m² | - |
| 1788339762 | 32.22° C | 65% | 1007.7 hPa | 0 mm | 2.24 m/s, 229° | 1100 W/m² | - |
| 1788339701 | 32.22° C | 66% | 1007.8 hPa | 0 mm | 1.79 m/s, 188° | 1102 W/m² | - |
| 1788339640 | 32.22° C | 67% | 1007.9 hPa | 0 mm | 0.45 m/s, 293° | 1103 W/m² | - |
| 1788339579 | 32.22° C | 67% | 1008.1 hPa | 0 mm | 1.79 m/s, 248° | 1102 W/m² | - |
| 1788339519 | 32.22° C | 66% | 1008 hPa | 0 mm | 1.79 m/s, 14° | 1100 W/m² | - |
| 1788339457 | 31.67° C | 66% | 1007.9 hPa | 0 mm | 0.89 m/s, 264° | 872 W/m² | - |
| 1788339396 | 31.67° C | 65% | 1007.9 hPa | 0 mm | 1.79 m/s, 294° | 966 W/m² | - |
| 1788339335 | 31.67° C | 66% | 1007.9 hPa | 0 mm | 1.79 m/s, 242° | 979 W/m² | - |
| 1788339274 | 31.67° C | 68% | 1008 hPa | 0 mm | 2.24 m/s, 311° | 984 W/m² | - |
* Rain latest hour (hover to see other rain measurements)
** Current wind speed in m/s (hover to see current wind gust speed)